Temperature
4 4 4 5 5 6 7 7 7 8 8 8 8 8 9 9 9 9 9 9 9 9 9 9 9 9 9 9 9 9 9 8 8 8 8 8 8 8 8 8 9 9 9
3 3 4 5 5 5 6 6 7 7 7 8 8 8 8 8 8 8 8 8 8 9 9 9 9 9 8 8 8 8 8 8 8 8 8 8 8 8 8 8 8 8 8
2 3 3 4 4 5 5 5 6 6 7 7 7 7 7 7 7 8 8 8 8 8 8 8 8 8 8 8 8 8 8 8 8 7 8 7 7 7 8 8 8 8 8
1 2 2 3 3 4 4 5 5 6 6 6 6 7 7 7 7 7 7 7 7 7 8 8 8 8 8 8 8 7 7 7 7 7 7 7 8 7 7 7 8 8 8
1 1 2 2 3 3 4 4 5 5 5 5 6 6 6 6 6 6 6 7 7 7 7 7 7 7 7 7 7 7 7 7 7 7 7 7 7 7 7 7 7 7 8
0 1 1 2 2 3 3 4 4 4 4 5 5 5 5 5 6 6 6 6 6 6 6 6 6 6 7 7 7 7 7 6 6 7 7 7 7 7 7 7 7 7 7
-0 0 1 1 2 2 3 3 3 3 4 4 4 4 4 5 5 5 5 5 6 6 6 6 6 6 6 6 6 6 6 6 6 6 6 6 6 7 7 7 7 6 7
-1 -0 0 1 1 2 2 2 2 3 3 3 3 4 4 4 4 4 4 4 5 5 5 5 5 5 6 6 6 6 6 6 6 6 6 6 6 6 6 6 6 6 6
-1 -1 -0 0 1 1 1 2 2 2 2 2 3 3 3 3 3 4 4 4 4 4 4 4 5 5 5 5 5 5 5 5 5 5 5 5 6 6 6 6 6 6 6
-2 -1 -1 -0 0 1 1 1 1 2 2 2 2 2 2 3 3 3 3 3 3 3 4 4 4 4 4 5 5 5 5 5 5 5 5 5 5 5 5 5 5 5 5
-2 -2 -1 -1 -1 -0 0 1 1 1 1 1 1 2 2 2 2 2 2 3 3 3 3 3 4 4 4 4 4 4 4 4 4 4 4 4 5 5 5 5 5 5 5
-3 -2 -2 -1 -1 -1 -0 -0 0 0 1 1 1 1 1 1 1 2 2 2 2 2 3 3 3 3 3 3 3 3 3 3 4 4 4 4 4 4 4 4 4 4 4
-3 -3 -2 -2 -2 -1 -1 -1 -0 -0 -0 0 0 0 0 1 1 1 1 1 2 2 2 2 2 2 3 3 3 3 3 3 3 3 3 4 4 4 4 4 4 4 4
-3 -3 -3 -2 -2 -2 -2 -1 -1 -1 -1 -1 -1 -0 -0 -0 0 0 0 1 1 1 1 2 2 2 2 2 2 2 2 3 3 3 3 3 3 3 3 3 3 3 3
-4 -4 -3 -3 -3 -2 -2 -2 -2 -2 -1 -1 -1 -1 -1 -1 -1 -0 -0 0 0 0 0 1 1 1 1 1 1 2 2 2 2 2 2 2 2 2 2 2 2 2 2
-4 -4 -4 -4 -4 -3 -3 -2 -2 -2 -2 -2 -2 -2 -1 -1 -1 -1 -1 -1 -1 -0 -0 -0 0 0 0 1 1 1 1 1 1 1 1 1 1 1 2 2 2 2 2
-5 -5 -5 -4 -4 -4 -3 -3 -3 -3 -2 -2 -2 -2 -2 -2 -2 -2 -2 -1 -1 -1 -1 -1 -1 -0 -0 -0 -0 -0 -0 -0 0 0 0 0 1 1 1 1 1 1 1
-5 -5 -5 -5 -4 -4 -4 -4 -3 -3 -3 -3 -3 -3 -3 -3 -2 -2 -2 -2 -2 -2 -2 -2 -1 -1 -1 -1 -1 -1 -1 -1 -1 -0 -0 -0 0 0 0 0 0 1 1
-5 -5 -5 -5 -5 -4 -4 -4 -4 -4 -4 -4 -3 -3 -3 -3 -3 -3 -3 -3 -3 -3 -2 -2 -2 -2 -1 -1 -1 -2 -1 -1 -1 -1 -1 -1 -1 -0 -0 -0 -0 -0 -0
-6 -6 -5 -5 -5 -5 -5 -5 -5 -4 -4 -4 -4 -4 -4 -4 -3 -3 -3 -3 -3 -3 -3 -3 -3 -2 -2 -2 -2 -2 -2 -2 -2 -2 -1 -1 -1 -1 -1 -1 -1 -1 -1
-6 -6 -6 -6 -5 -5 -5 -5 -5 -5 -5 -5 -4 -4 -4 -4 -4 -4 -4 -4 -4 -4 -4 -3 -3 -3 -3 -3 -3 -3 -3 -3 -2 -2 -2 -2 -2 -2 -2 -2 -2 -1 -1
-6 -6 -6 -6 -6 -6 -6 -6 -5 -5 -5 -5 -5 -5 -5 -5 -4 -4 -4 -4 -4 -4 -4 -4 -4 -4 -4 -4 -3 -3 -3 -3 -3 -3 -3 -2 -2 -2 -2 -2 -2 -2 -2
-7 -7 -7 -6 -6 -6 -6 -6 -6 -6 -6 -6 -5 -5 -5 -5 -5 -5 -5 -5 -5 -5 -5 -5 -5 -4 -4 -4 -4 -4 -4 -4 -3 -3 -3 -3 -3 -3 -3 -3 -3 -3 -3
-7 -7 -7 -7 -6 -6 -6 -6 -6 -6 -6 -6 -6 -6 -6 -5 -5 -6 -6 -5 -5 -5 -5 -5 -5 -5 -5 -4 -4 -4 -4 -4 -4 -4 -3 -3 -3 -3 -3 -3 -3 -3 -3
-7 -7 -7 -7 -7 -7 -7 -7 -7 -7 -7 -7 -7 -7 -6 -6 -6 -6 -6 -6 -6 -6 -6 -6 -6 -6 -5 -5 -5 -5 -5 -4 -4 -4 -4 -4 -4 -4 -4 -4 -4 -4 -4
-7 -7 -7 -7 -7 -7 -7 -7 -7 -7 -7 -7 -7 -7 -7 -7 -7 -7 -6 -6 -6 -6 -6 -6 -6 -6 -6 -6 -5 -5 -5 -5 -5 -4 -4 -4 -4 -5 -5 -5 -5 -5 -4
Wind_Speed
3 4 3 3 3 3 3 3 3 3 2 2 2 2 2 2 2 3 4 4 5 6 6 4 4 5 4 4 5 4 4 2 3 3 2 2 2 2 2 2 2 2 2
4 5 4 4 3 2 3 3 2 2 2 1 1 1 1 1 2 3 3 4 4 5 5 4 3 4 4 4 5 4 3 1 1 2 2 1 1 1 0 1 1 1 1
4 4 4 4 3 3 2 2 2 2 2 2 3 3 3 2 2 2 2 3 4 4 4 4 3 3 4 4 4 4 4 3 0 1 2 2 2 1 1 0 0 1 1
4 4 3 3 3 3 2 3 3 3 3 2 3 4 2 1 1 1 1 2 3 4 4 4 4 3 3 4 4 3 3 4 3 1 1 1 2 2 0 1 1 1 1
4 3 3 3 3 2 2 2 3 3 3 3 3 3 2 1 1 2 2 2 2 3 4 4 3 2 2 3 3 3 4 3 3 2 1 1 1 1 2 2 1 1 1
4 3 3 2 3 3 3 3 3 3 3 3 3 3 2 2 2 2 2 1 1 2 2 3 3 2 2 2 3 3 4 3 3 2 2 2 2 2 2 2 2 2 2
3 4 4 3 3 3 3 3 3 3 3 3 3 2 1 1 1 1 1 1 1 1 1 1 2 2 2 2 2 3 3 3 3 3 2 2 1 1 2 1 2 1 1
4 3 4 3 3 3 2 2 2 2 3 2 2 1 1 1 0 1 0 0 0 0 0 0 1 2 2 2 2 2 2 2 3 3 2 1 1 1 2 2 2 1 1
5 4 4 3 2 3 2 1 1 2 1 1 1 1 1 1 1 0 0 0 0 0 0 0 1 1 2 2 2 2 1 2 2 2 2 1 1 1 1 1 2 3 2
5 4 4 4 3 2 2 2 1 0 1 0 1 1 1 0 0 0 0 1 1 1 0 1 1 1 2 2 2 1 1 2 2 2 2 2 1 1 1 1 1 1 2
4 4 4 3 4 3 3 3 2 1 1 1 0 1 1 1 0 0 0 0 1 1 0 0 1 1 1 1 2 1 2 2 2 2 2 2 2 2 1 1 1 1 1
4 4 4 4 4 4 3 3 3 3 2 1 0 1 0 1 0 0 1 1 1 1 0 0 0 1 1 2 2 2 2 2 3 3 3 3 2 2 2 2 2 2 2
4 4 4 3 4 4 3 3 3 3 3 2 1 1 1 1 1 1 1 1 1 1 1 1 1 1 1 1 2 2 2 3 3 3 4 4 3 3 2 2 3 2 2
4 4 4 4 4 4 4 4 4 3 3 3 2 2 1 1 1 1 1 2 2 1 1 2 2 2 2 2 1 1 2 2 2 2 3 4 4 4 4 3 3 2 2
5 5 5 4 4 5 4 4 4 4 3 3 3 3 2 2 1 1 1 1 1 2 2 2 2 2 2 2 2 2 2 2 2 2 2 3 3 5 4 3 3 3 2
6 6 5 5 5 5 5 5 4 4 3 2 3 3 3 2 2 2 2 2 1 1 1 2 2 2 2 3 3 3 2 2 2 2 2 2 2 3 4 4 4 4 3
6 6 6 5 5 5 5 5 4 4 3 3 3 3 3 3 3 2 2 2 2 2 2 2 3 3 3 3 3 3 2 2 2 2 2 2 2 2 2 2 3 3 4
6 6 6 6 5 5 5 5 4 3 3 3 3 3 3 3 3 3 3 3 2 2 2 3 3 2 3 4 4 4 2 2 3 3 3 3 3 3 3 2 2 2 2
6 6 5 5 5 5 4 4 4 3 3 3 3 4 3 3 3 3 3 3 2 3 3 3 3 3 3 4 4 4 2 2 3 3 3 3 3 4 4 3 3 2 2
5 5 5 4 4 5 4 3 3 3 4 4 4 4 3 3 3 3 3 3 3 3 3 3 3 3 3 4 4 4 2 2 2 2 3 4 5 5 5 4 4 4 3
5 5 4 4 4 4 3 3 3 4 5 4 4 3 3 3 3 3 3 2 2 2 2 3 3 3 3 4 5 5 3 3 3 3 3 3 5 5 5 4 3 4 3
5 5 5 5 5 3 2 3 4 4 4 4 3 3 3 3 3 2 3 2 2 2 2 2 3 2 2 3 4 5 4 4 3 3 3 3 4 4 4 3 3 3 2
5 5 4 5 4 3 2 3 5 4 3 3 3 4 4 3 2 2 2 2 2 2 2 2 2 3 2 3 4 4 4 4 3 3 4 4 4 3 2 2 3 2 1
5 5 4 5 5 5 4 4 4 3 2 3 3 3 3 3 2 2 1 2 2 2 3 3 3 3 3 2 2 2 2 3 3 2 3 3 3 2 1 1 1 1 1
5 5 4 4 5 5 5 5 4 3 3 3 3 3 2 2 2 2 2 2 2 3 3 3 3 3 3 4 5 3 3 2 3 2 1 1 1 1 1 1 1 1 1
5 5 5 5 5 5 5 4 4 2 2 3 3 2 2 2 2 2 3 4 4 5 5 5 4 4 5 6 6 5 5 4 2 1 1 2 2 2 2 2 1 1 1
Wind_Direction
333 347 349 8 29 31 51 54 50 42 63 92 101 114 90 68 65 68 88 108 121 125 119 117 130 134 137 138 129 119 119 112 113 99 78 44 55 75 71 81 98 107 120
348 351 6 23 26 28 48 49 47 50 47 72 92 126 119 86 63 56 65 85 100 117 123 120 136 136 135 132 130 124 121 121 115 121 117 97 360 352 53 73 134 133 116
336 333 6 14 14 19 30 44 36 41 41 51 83 75 75 72 63 57 50 48 94 104 120 125 130 139 147 157 154 145 135 151 155 116 138 149 205 259 318 296 223 186 139
338 338 6 4 357 0 18 38 37 36 39 60 96 100 101 99 79 106 75 53 85 104 113 120 119 134 142 157 166 153 152 152 164 136 53 123 148 160 225 296 255 204 208
334 339 351 347 346 4 30 44 47 40 36 44 74 91 71 55 60 71 82 76 68 90 106 112 116 120 139 154 158 155 157 163 167 161 148 99 68 114 169 215 267 293 248
336 347 350 358 4 16 26 50 59 46 46 54 63 70 68 56 72 62 72 65 60 59 76 116 122 124 121 140 165 159 163 170 163 158 158 162 165 182 171 200 218 247 267
337 350 349 352 360 14 26 38 58 46 44 51 64 74 62 98 119 98 96 50 49 26 15 62 125 122 132 150 144 146 161 171 172 173 183 182 194 177 168 175 190 213 274
339 345 337 341 359 5 22 34 55 50 49 47 36 70 67 62 38 44 73 228 234 266 341 22 151 140 140 138 130 125 160 156 172 185 181 177 195 186 187 182 167 182 265
338 338 339 343 358 4 1 25 40 34 40 32 21 42 69 49 28 7 50 266 286 313 70 66 129 145 136 134 126 137 163 162 175 184 187 201 210 192 200 196 189 174 207
326 332 340 342 348 360 352 2 8 332 350 70 27 360 39 49 124 102 24 347 327 330 110 91 101 126 132 139 136 147 150 177 193 182 180 205 219 200 183 195 215 201 195
321 325 336 345 360 14 10 354 345 351 0 22 34 11 15 14 72 138 244 269 310 321 81 119 164 150 141 145 150 167 175 189 199 193 195 215 210 207 213 207 208 209 192
323 329 343 356 2 0 1 358 355 351 340 331 328 320 349 43 30 232 240 251 267 286 272 235 220 175 183 178 179 191 197 199 208 209 205 220 210 211 218 207 215 218 209
336 345 352 352 346 342 345 348 351 348 344 348 342 332 342 4 333 279 246 229 238 251 273 235 230 231 216 200 202 200 205 212 219 217 213 217 205 219 225 221 219 217 220
336 346 346 340 337 336 338 340 339 343 345 348 341 322 295 275 265 296 270 240 227 222 237 242 236 234 226 224 220 208 218 220 228 229 222 217 211 221 219 225 223 215 207
339 338 333 330 332 336 335 332 326 330 333 338 332 319 309 306 295 296 294 259 239 242 240 245 249 243 233 225 214 209 220 224 239 253 239 233 232 232 226 227 217 208 212
327 328 326 326 324 322 320 319 320 324 328 326 317 316 319 320 307 297 299 295 281 262 249 248 249 246 251 252 243 233 217 230 236 254 259 258 261 250 243 236 226 216 218
317 318 315 310 308 306 310 311 313 319 326 324 320 318 319 319 307 304 300 289 281 272 259 251 246 244 250 255 252 245 227 226 235 244 256 261 263 266 237 241 248 253 249
308 309 311 310 309 310 314 314 316 321 325 323 319 319 323 320 317 313 296 289 282 270 262 260 256 255 255 256 257 256 237 229 235 232 235 241 245 241 220 211 223 239 255
301 301 301 301 305 308 312 319 323 326 327 323 318 316 313 304 308 307 298 292 287 278 274 273 268 261 263 261 256 257 229 233 242 240 239 233 230 239 232 216 217 236 261
309 307 311 314 310 309 317 319 320 326 321 314 308 307 304 296 291 291 291 288 282 280 279 282 279 269 265 261 256 251 229 236 249 255 251 245 236 237 235 219 213 229 247
312 319 322 317 304 306 315 313 319 311 305 308 311 313 310 301 289 287 284 277 284 291 291 293 294 280 271 268 264 256 234 226 237 250 255 239 235 241 238 236 223 230 231
324 325 324 314 308 308 314 311 305 304 311 314 315 316 316 310 307 300 299 295 283 284 291 297 302 301 289 280 270 267 260 248 239 246 251 235 231 236 239 240 221 222 236
313 316 313 311 314 317 310 295 302 312 315 318 315 315 319 318 309 299 295 295 278 269 278 280 287 301 308 297 286 279 275 265 254 243 240 234 231 232 229 227 225 222 207
312 314 316 317 317 318 313 294 298 304 302 303 304 307 313 317 321 314 294 276 270 269 269 273 278 289 299 299 292 281 280 274 261 248 234 229 224 211 197 214 224 184 198
313 314 313 307 305 312 309 309 308 301 297 295 294 301 309 307 313 315 298 284 275 270 272 272 269 271 284 291 290 280 265 247 233 224 218 203 189 182 186 191 194 185 203
309 313 311 306 305 310 309 311 310 298 281 292 299 299 305 307 312 318 327 328 315 313 308 303 296 288 285 290 292 291 281 272 243 238 200 194 190 200 210 217 225 225 227
Height
1500 1501 1501 1501 1500 1502 1503 1503 1505 1507 1509 1511 1513 1515 1517 1519 1521 1523 1526 1527 1529 1531 1534 1536 1538 1540 1542 1543 1545 1547 1549 1551 1552 1554 1555 1557 1558 1559 1561 1562 1563 1564 1565
1499 1499 1499 1499 1499 1500 1501 1502 1504 1505 1507 1509 1511 1513 1515 1517 1520 1522 1524 1526 1527 1529 1531 1534 1536 1538 1540 1541 1543 1545 1547 1548 1550 1552 1553 1554 1557 1557 1558 1559 1561 1562 1563
1498 1498 1497 1497 1497 1497 1499 1500 1502 1504 1506 1508 1510 1512 1514 1516 1518 1520 1522 1524 1525 1527 1529 1531 1533 1535 1537 1539 1541 1542 1544 1546 1548 1550 1552 1552 1553 1554 1556 1556 1558 1559 1560
1498 1497 1496 1497 1497 1497 1499 1500 1501 1502 1504 1507 1508 1509 1511 1512 1515 1517 1519 1522 1524 1525 1527 1529 1531 1533 1535 1537 1538 1540 1542 1544 1545 1547 1549 1551 1551 1552 1552 1554 1555 1556 1557
1496 1496 1496 1496 1496 1497 1498 1499 1500 1501 1503 1504 1506 1508 1510 1512 1513 1515 1518 1519 1521 1523 1525 1527 1528 1530 1532 1534 1536 1537 1539 1541 1543 1544 1545 1547 1549 1549 1550 1550 1552 1553 1554
1496 1495 1496 1496 1496 1496 1496 1498 1499 1500 1502 1503 1505 1506 1509 1510 1512 1513 1515 1517 1519 1520 1522 1524 1526 1527 1529 1531 1533 1534 1536 1538 1540 1541 1543 1544 1545 1546 1547 1548 1548 1550 1551
1496 1495 1495 1495 1495 1495 1495 1496 1497 1499 1500 1502 1503 1505 1507 1508 1509 1510 1512 1514 1515 1517 1519 1521 1522 1524 1526 1528 1530 1531 1533 1535 1537 1538 1540 1541 1543 1544 1545 1546 1546 1547 1548
1496 1495 1495 1494 1494 1494 1495 1496 1496 1497 1498 1500 1502 1503 1505 1506 1507 1508 1510 1511 1513 1514 1516 1518 1519 1521 1523 1524 1526 1528 1530 1532 1533 1535 1536 1538 1540 1541 1542 1543 1544 1544 1545
1496 1495 1494 1494 1494 1494 1495 1495 1496 1497 1498 1499 1500 1501 1502 1503 1504 1506 1508 1509 1510 1511 1513 1514 1516 1517 1519 1521 1522 1524 1526 1528 1530 1531 1533 1534 1536 1537 1539 1540 1541 1542 1541
1496 1495 1494 1493 1493 1494 1494 1495 1495 1495 1496 1497 1498 1499 1500 1501 1502 1504 1505 1506 1508 1509 1510 1511 1513 1514 1516 1517 1518 1520 1522 1524 1525 1527 1529 1530 1532 1533 1534 1536 1537 1538 1539
1496 1494 1494 1493 1493 1493 1493 1494 1494 1494 1495 1496 1497 1497 1498 1499 1500 1501 1502 1504 1505 1506 1507 1508 1510 1511 1512 1514 1515 1516 1518 1520 1521 1523 1524 1526 1528 1529 1530 1532 1533 1534 1535
1496 1494 1493 1493 1492 1492 1492 1492 1493 1493 1493 1494 1494 1495 1496 1496 1497 1498 1499 1501 1502 1503 1504 1505 1506 1507 1509 1510 1511 1513 1514 1516 1517 1519 1520 1522 1523 1525 1526 1527 1528 1530 1531
1496 1494 1493 1492 1492 1492 1492 1491 1491 1491 1491 1492 1492 1492 1493 1493 1494 1495 1496 1497 1498 1499 1501 1502 1503 1504 1505 1506 1508 1509 1510 1512 1513 1515 1516 1517 1519 1520 1521 1523 1524 1525 1526
1496 1494 1493 1492 1492 1491 1490 1490 1490 1490 1490 1490 1490 1490 1490 1491 1491 1492 1493 1494 1495 1496 1497 1498 1499 1500 1501 1502 1504 1505 1506 1507 1509 1510 1512 1513 1514 1515 1517 1518 1519 1520 1522
1495 1494 1493 1492 1491 1490 1490 1489 1489 1488 1488 1488 1487 1488 1488 1488 1489 1489 1490 1490 1491 1492 1493 1494 1495 1496 1497 1498 1500 1501 1502 1503 1504 1506 1507 1509 1510 1511 1512 1513 1514 1516 1517
1495 1493 1492 1491 1490 1489 1488 1488 1487 1486 1486 1486 1485 1485 1485 1485 1486 1486 1486 1487 1487 1488 1489 1490 1491 1492 1493 1494 1496 1497 1498 1499 1500 1501 1503 1504 1505 1506 1507 1508 1510 1511 1512
1494 1493 1491 1490 1488 1487 1486 1485 1485 1484 1484 1483 1483 1483 1483 1483 1483 1483 1483 1483 1483 1484 1485 1486 1487 1488 1489 1490 1492 1493 1494 1495 1496 1497 1498 1499 1500 1501 1502 1503 1504 1506 1507
1493 1491 1489 1488 1487 1485 1484 1484 1483 1482 1481 1481 1481 1481 1480 1480 1480 1480 1480 1480 1480 1481 1481 1482 1483 1484 1485 1486 1487 1489 1490 1491 1492 1493 1494 1495 1496 1497 1498 1499 1499 1500 1501
1491 1489 1488 1486 1484 1483 1482 1481 1480 1480 1479 1479 1478 1478 1478 1478 1477 1477 1477 1477 1477 1477 1478 1478 1479 1480 1481 1482 1483 1484 1485 1486 1487 1488 1489 1490 1491 1492 1493 1494 1495 1495 1496
1490 1488 1486 1484 1482 1481 1480 1479 1478 1477 1476 1476 1476 1476 1476 1475 1475 1475 1474 1475 1475 1474 1475 1475 1476 1476 1477 1478 1479 1480 1481 1481 1482 1483 1484 1485 1487 1488 1488 1489 1490 1491 1492
1488 1486 1484 1482 1480 1479 1478 1476 1475 1475 1474 1474 1474 1474 1473 1473 1472 1472 1472 1472 1471 1471 1471 1471 1472 1473 1473 1474 1475 1476 1477 1477 1478 1478 1479 1481 1482 1483 1484 1485 1486 1486 1487
1485 1483 1481 1479 1478 1477 1476 1474 1473 1473 1472 1472 1471 1471 1470 1470 1469 1469 1469 1469 1468 1468 1468 1468 1468 1468 1469 1470 1470 1471 1472 1473 1474 1474 1475 1476 1477 1478 1479 1480 1481 1482 1483
1484 1481 1479 1477 1476 1475 1474 1472 1471 1471 1470 1469 1468 1468 1467 1467 1466 1466 1466 1465 1465 1465 1465 1464 1464 1464 1465 1465 1466 1467 1468 1469 1469 1470 1470 1471 1472 1473 1474 1475 1476 1477 1478
1481 1479 1477 1475 1473 1473 1472 1471 1470 1469 1468 1467 1466 1465 1465 1464 1463 1463 1463 1463 1462 1462 1462 1461 1461 1460 1461 1461 1462 1462 1463 1464 1464 1465 1466 1467 1467 1468 1469 1470 1471 1472 1473
1479 1477 1475 1473 1472 1471 1470 1469 1468 1466 1465 1464 1464 1463 1462 1462 1461 1460 1461 1460 1460 1460 1460 1459 1459 1458 1457 1458 1459 1459 1459 1460 1460 1461 1461 1462 1463 1464 1465 1466 1466 1467 1468
1477 1475 1473 1471 1470 1468 1467 1466 1465 1464 1463 1462 1461 1461 1460 1459 1459 1458 1458 1457 1458 1457 1457 1457 1457 1455 1455 1455 1455 1455 1456 1456 1457 1457 1457 1458 1458 1460 1461 1462 1462 1463 1464